Regional Weather Roundup
Issued by NWS Little Rock, AR

Home | Current Version | Previous Version | Graphics & Text | Print | Product List | Glossary On
Versions: 1 2 3 4 5 6 7 8 9 10 11 12 13 14 15 16 17 18 19 20 21 22 23 24 25 26 27 28 29 30 31 32 33 34 35 36 37 38 39 40 41 42 43 44 45 46 47 48 49 50
000
ASUS44 KLZK 271105
RWRLZK

WEATHER ROUNDUP FOR ARKANSAS
NATIONAL WEATHER SERVICE LITTLE ROCK AR
600 AM CDT FRI MAR 27 2015

NOTE: "FAIR" INDICATES FEW OR NO CLOUDS BELOW 12,000 FEET WITH NO
SIGNIFICANT WEATHER AND/OR OBSTRUCTIONS TO VISIBILITY.

ARZ001-003-010-029-271200-
NORTHWEST ARKANSAS

CITY           SKY/WX    TMP DP  RH WIND       PRES   REMARKS
FAYETTEVILLE   CLOUDY    39  36  89 NE3       30.07R
FORT SMITH     MOCLDY    43  37  79 E3        30.05R
HARRISON       CLOUDY    38  35  89 N5        30.07R
BENTONVILLE    CLOUDY    39  34  81 NE8       30.08R
ROGERS         CLOUDY    39  35  86 NE8       30.09R
SILOAM SPGS    PTCLDY    39  30  70 NE9       30.08R
HIGHFILL       CLOUDY    39  35  86 NE7       30.07R
SPRINGDALE     CLOUDY    39  36  87 NE6       30.09
$$

ARZ004-005-016-271200-
NORTH CENTRAL ARKANSAS

CITY           SKY/WX    TMP DP  RH WIND       PRES   REMARKS
BATESVILLE     MOCLDY    39  34  81 NW3       30.08R
FLIPPIN        CLOUDY    39  34  81 N6        30.08R
MTN HOME       LGT RAIN  38  36  92 N5        30.07S
$$

ARZ040-041-271200-
WEST CENTRAL ARKANSAS

CITY           SKY/WX    TMP DP  RH WIND       PRES   REMARKS
MENA           MOCLDY    37  36  93 CALM      30.05F
MOUNT IDA      MOCLDY    40  36  86 CALM      30.02F
$$

ARZ009-017-025-026-028-271200-
NORTHEAST ARKANSAS

CITY           SKY/WX    TMP DP  RH WIND       PRES   REMARKS
CORNING          N/A     41  36  81 N9        30.07S
JONESBORO      CLOUDY    38  37  97 NW3       30.06R
NEWPORT        CLOUDY    41  40  96 W5        30.08R
BLYTHEVILLE    MOCLDY    38  37  97 NW6       30.06R
$$

ARZ022-023-033-042-044-271200-
CENTRAL ARKANSAS

CITY           SKY/WX    TMP DP  RH WIND       PRES   REMARKS
LITTLE ROCK    MOCLDY    43  34  70 N5        30.08R
N LITTLE ROCK    N/A     43  37  78 NW6       30.08R
JACKSONVILLE   MOCLDY    39  35  87 SW3       30.06R
SEARCY         CLOUDY    41  34  76 N3        30.09R
HOT SPRINGS    PTCLDY    41  38  89 CALM      30.07S
RUSSELLVILLE   PTCLDY    41  39  93 CALM      30.05F
CLINTON        MOCLDY    39  37  93 CALM      30.09S
$$

ARZ036-271200-
EAST ARKANSAS

CITY           SKY/WX    TMP DP  RH WIND       PRES   REMARKS
WEST MEMPHIS   MOCLDY    37  36  96 NW3       30.05S
$$

ARZ050-053-066-070-073-271200-
SOUTHWEST ARKANSAS

CITY           SKY/WX    TMP DP  RH WIND       PRES   REMARKS
ARKADELPHIA    FAIR      41  41 100 CALM      30.09S
CAMDEN         PTCLDY    39  37  93 CALM      30.09R FOG
TEXARKANA      CLEAR     42  37  82 NE5       30.08R
EL DORADO      MOCLDY    38  36  92 CALM      30.09R
$$

ARZ056-057-069-271200-
SOUTHEAST ARKANSAS

CITY           SKY/WX    TMP DP  RH WIND       PRES   REMARKS
PINE BLUFF     PTCLDY    40  38  93 SW3       30.07S
STUTTGART      CLOUDY    45  39  81 CALM      30.07F
MONTICELLO     MOCLDY    37  35  92 CALM      30.07R

$$




USA.gov is the U.S. government's official web portal to all federal, state and local government web resources and services.